• Join FlightAware (Why Join?)
  • Login
  • US Flag 
06:32PM EDT


 

Airport Tracker/Info


-or-


 

Live Flight TrackerFlight Track Log ✈ SKW7439 ✈ 17-Aug-2013 ✈ KCOD - KSLC

Flight Track Log - Related Links

Times and Time Zones

All times are in EDT time to prevent confusion due to time zone crossing. See the SKW7439 flight status page for this flight to view local times or setup timezone preferences in your user account.

Time Position Orientation Groundspeed Altitude Reporting Facility
EDT Latitude Longitude Course Direction KTS MPH feet Rate Location/Type
08:37PM 44.1153 -109.3651 211° Southwest  Level Estimated
08:38PM 44.0342 -109.4328 211° Southwest  Level Estimated
08:39PM 43.9606 -109.4941 211° Southwest  Level Estimated
08:39PM 44.5886 -108.9369 42° Northeast 228 262 8,600  Level Salt Lake Center
08:40PM 43.8869 -109.5553 211° Southwest  Level Estimated
08:40PM 44.5292 -108.8981 155° Southeast 245 282 10,900  Level Salt Lake Center
08:41PM 43.8132 -109.6163 211° Southwest  Level Estimated
08:41PM 44.4619 -108.8664 161° South 251 289 12,400  Level Salt Lake Center
08:42PM 43.7394 -109.6772 211° Southwest  Level Estimated
08:42PM 44.3839 -108.8294 161° South 267 307 13,400  Level Salt Lake Center
08:43PM 43.6656 -109.7379 211° Southwest  Level Estimated
08:43PM 44.2917 -108.7750 157° South 339 390 14,600  Level Salt Lake Center
08:44PM 44.2003 -108.7842 184° South 346 398 15,800 1,320 Climbing Salt Lake Center
08:45PM 44.1286 -108.8819 224° Southwest 359 413 17,300 1,560 Climbing Salt Lake Center
08:46PM 44.0606 -108.9794 226° Southwest 355 409 19,000 1,800 Climbing Salt Lake Center
08:47PM 43.9869 -109.1019 230° Southwest 349 402 21,000 1,620 Climbing Salt Lake Center
08:48PM 43.9722 -109.2367 261° West 353 406 22,400 1,320 Climbing Salt Lake Center
08:49PM 43.9544 -109.3672 259° West 362 417 23,800 780 Climbing Salt Lake Center
08:50PM 43.8783 -109.4617 222° Southwest 371 427 24,000 60 Climbing Salt Lake Center
08:51PM 43.7939 -109.5697 223° Southwest 385 443 24,000  Level Salt Lake Center
08:52PM 43.7164 -109.6756 225° Southwest 406 467 24,000  Level Salt Lake Center
08:53PM 43.6428 -109.8189 235° Southwest 410 472 24,000  Level Salt Lake Center
08:54PM 43.5789 -109.9392 234° Southwest 406 467 24,000  Level Salt Lake Center
08:55PM 43.5075 -110.0514 229° Southwest 416 479 24,000  Level Salt Lake Center
08:56PM 43.4275 -110.1883 231° Southwest 413 475 24,000  Level Salt Lake Center
08:57PM 43.3592 -110.3069 232° Southwest 415 478 24,000  Level Salt Lake Center
08:58PM 43.2789 -110.4444 231° Southwest 415 478 24,000  Level Salt Lake Center
08:59PM 43.2072 -110.5731 233° Southwest 423 487 24,000  Level Salt Lake Center
09:00PM 43.1392 -110.6906 232° Southwest 416 479 24,000  Level Salt Lake Center
09:01PM 43.0628 -110.8339 234° Southwest 417 480 24,000  Level Salt Lake Center
09:02PM 43.0022 -110.9600 237° Southwest 415 478 24,000  Level Salt Lake Center
09:03PM 42.9264 -111.0725 227° Southwest 428 493 24,000  Level Salt Lake Center
09:04PM 42.8050 -111.1364 201° Southwest 419 482 24,000  Level Salt Lake Center
09:05PM 42.7008 -111.1883 200° South 427 491 24,000  Level Salt Lake Center
09:06PM 42.5894 -111.2439 200° South 427 491 24,000  Level Salt Lake Center
09:07PM 42.4778 -111.3019 201° Southwest 430 495 24,000  Level Salt Lake Center
09:08PM 42.3439 -111.3694 200° South 429 494 24,000  Level Salt Lake Center
09:09PM 42.2317 -111.4281 201° Southwest 432 497 24,000  Level Salt Lake Center
09:11PM 42.1319 -111.5125 212° Southwest 429 494 24,000  Level Salt Lake Center
09:12PM 42.0350 -111.6036 215° Southwest 426 490 24,000 -960 Level Salt Lake Center
09:13PM 41.9417 -111.6917 215° Southwest 415 478 22,100 -1,860 Descending Salt Lake Center
09:14PM 41.8483 -111.7775 214° Southwest 408 470 20,200 -1,860 Descending Salt Lake Center
09:15PM 41.7539 -111.8647 215° Southwest 414 476 18,300 -1,920 Descending Salt Lake Center
09:16PM 41.6522 -111.9550 214° Southwest 417 480 16,400 -1,620 Descending Salt Lake Center
09:17PM 41.5644 -112.0375 215° Southwest 413 475 15,000 -1,380 Descending Salt Lake Center
09:18PM 41.4481 -112.0453 183° South 394 453 13,600 -1,500 Descending Salt Lake Center
09:19PM 41.3342 -112.0356 176° South 386 444 12,100 -840 Descending Salt Lake Center
09:20PM 41.2483 -112.0250 175° South 370 426 12,000 -720 Descending Salt Lake Center
09:21PM 41.1458 -112.0156 176° South 306 352 10,600 -1,320 Descending Salt Lake Center
09:22PM 41.0689 -112.0064 175° South 285 328 9,100 -1,500 Descending Salt Lake Center
09:23PM 40.9892 -111.9994 176° South 267 307 7,600 -1,380 Descending Salt Lake Center
09:24PM 40.9294 -111.9914 174° South 232 267 6,500 -1,020 Descending Salt Lake Center
09:25PM 40.8742 -111.9853 175° South 171 197 5,500 -780 Descending Salt Lake Center
09:26PM 40.8417 -112.0042 204° Southwest 145 167 5,000 -660 Descending Salt Lake Center
09:27PM 40.8014 -111.9983 174° South 133 153 4,200 -720 Descending Salt Lake Center